| time (UTC) | temp F | wind direction | speed MPH | gust MPH | rain 1hr in | rain 24hr in | rain mn in | humidity % | barometer mb |
| 20260506083251 | 37 | 278 | 1.0 | 1.0 | 0.00 | 0.00 | 0.00 | 85 | 1011.4 |
| 20260506082748 | 37 | 279 | 1.0 | 1.0 | 0.00 | 0.00 | 0.00 | 85 | 1011.4 |
| 20260506082243 | 37 | 279 | 1.0 | 1.0 | 0.00 | 0.00 | 0.00 | 84 | 1011.3 |
| 20260506081741 | 38 | 277 | 1.0 | 1.0 | 0.00 | 0.00 | 0.00 | 84 | 1011.4 |
| 20260506081238 | 38 | 277 | 1.0 | 1.0 | 0.00 | 0.00 | 0.00 | 83 | 1011.3 |
| 20260506080737 | 38 | 277 | 1.0 | 1.0 | 0.00 | 0.00 | 0.00 | 82 | 1011.2 |
| 20260506080233 | 39 | 283 | 1.0 | 1.0 | 0.00 | 0.00 | 0.00 | 81 | 1010.9 |
| 20260506073217 | 41 | 282 | 1.0 | 1.0 | 0.00 | 0.00 | 0.00 | 71 | 1011.0 |
| 20260506072714 | 42 | 279 | 1.0 | 1.0 | 0.00 | 0.00 | 0.00 | 71 | 1011.1 |
| 20260506072211 | 42 | 283 | 0.0 | 1.0 | 0.00 | 0.00 | 0.00 | 69 | 1010.9 |
| 20260506071708 | 42 | 282 | 1.0 | 1.0 | 0.00 | 0.00 | 0.00 | 68 | 1010.8 |
| 20260506071206 | 42 | 274 | 0.0 | 1.0 | 0.00 | 0.00 | 0.00 | 68 | 1010.9 |
| 20260506070703 | 42 | 274 | 0.0 | 0.0 | 0.00 | 0.00 | 0.00 | 68 | 1010.8 |
| 20260506070200 | 43 | 272 | 0.0 | 1.0 | 0.00 | 0.00 | 0.00 | 68 | 1010.7 |
| 20260506062137 | 44 | 356 | 0.0 | 0.0 | 0.00 | 0.00 | 0.00 | 62 | 1011.3 |
| 20260506061633 | 45 | 350 | 0.0 | 0.0 | 0.00 | 0.00 | 0.00 | 62 | 1011.2 |
| 20260506061131 | 45 | 350 | 0.0 | 0.0 | 0.00 | 0.00 | 0.00 | 60 | 1011.1 |
| 20260506060629 | 45 | 33 | 0.0 | 0.0 | 0.00 | 0.00 | 0.00 | 60 | 1011.0 |
| 20260506060126 | 45 | 63 | 2.0 | 3.0 | 0.00 | 0.00 | 0.00 | 60 | 1011.1 |
| 20260506051058 | 47 | 269 | 0.0 | 1.0 | 0.00 | 0.00 | 0.00 | 56 | 1010.6 |
| 20260506050555 | 47 | 0 | 1.0 | 2.0 | 0.00 | 0.00 | 0.00 | 54 | 1010.7 |
| 20260506045046 | 47 | 17 | 3.0 | 6.0 | 0.00 | 0.00 | 0.00 | 57 | 1010.8 |
| 20260506044544 | 46 | 343 | 0.0 | 0.0 | 0.00 | 0.00 | 0.00 | 62 | 1010.7 |
| 20260506044040 | 46 | 279 | 0.0 | 0.0 | 0.00 | 0.00 | 0.00 | 61 | 1010.9 |
| 20260506043537 | 46 | 272 | 0.0 | 0.0 | 0.00 | 0.00 | 0.00 | 61 | 1010.8 |
| 20260506043036 | 47 | 272 | 0.0 | 0.0 | 0.00 | 0.00 | 0.00 | 60 | 1010.9 |
| 20260506042535 | 47 | 272 | 0.0 | 0.0 | 0.00 | 0.00 | 0.00 | 58 | 1010.8 |
| 20260506042032 | 47 | 272 | 0.0 | 0.0 | 0.00 | 0.00 | 0.00 | 58 | 1010.9 |
| 20260506041531 | 48 | 268 | 0.0 | 0.0 | 0.00 | 0.00 | 0.00 | 58 | 1010.8 |
| 20260506041027 | 48 | 269 | 0.0 | 1.0 | 0.00 | 0.00 | 0.00 | 59 | 1010.5 |
| 20260506040525 | 48 | 265 | 0.0 | 1.0 | 0.00 | 0.00 | 0.00 | 58 | 1010.4 |
| 20260506040021 | 48 | 277 | 1.0 | 1.0 | 0.00 | 0.00 | 0.00 | 56 | 1010.4 |
| 20260506035518 | 48 | 259 | 0.0 | 0.0 | 0.00 | 0.00 | 0.00 | 56 | 1010.5 |
| 20260506035014 | 49 | 255 | 0.0 | 0.0 | 0.00 | 0.00 | 0.00 | 56 | 1010.6 |
| 20260506034512 | 49 | 255 | 0.0 | 0.0 | 0.00 | 0.00 | 0.00 | 56 | 1010.6 |
| 20260506034009 | 49 | 249 | 0.0 | 0.0 | 0.00 | 0.00 | 0.00 | 56 | 1010.3 |
| 20260506033506 | 50 | 315 | 1.0 | 1.0 | 0.00 | 0.00 | 0.00 | 54 | 1010.0 |
| 20260506033004 | 50 | 301 | 1.0 | 1.0 | 0.00 | 0.00 | 0.00 | 53 | 1009.9 |
| 20260506032500 | 50 | 278 | 0.0 | 1.0 | 0.00 | 0.00 | 0.00 | 52 | 1009.9 |
| 20260506031956 | 50 | 274 | 1.0 | 1.0 | 0.00 | 0.00 | 0.00 | 53 | 1010.0 |
| 20260506031455 | 50 | 281 | 0.0 | 0.0 | 0.00 | 0.00 | 0.00 | 53 | 1009.9 |
| 20260506030952 | 50 | 311 | 2.0 | 2.0 | 0.00 | 0.00 | 0.00 | 54 | 1010.0 |
| 20260506030449 | 50 | 324 | 0.0 | 0.0 | 0.00 | 0.00 | 0.00 | 54 | 1010.0 |
| 20260506025946 | 50 | 343 | 0.0 | 0.0 | 0.00 | 0.00 | 0.00 | 54 | 1010.2 |
| 20260506025443 | 50 | 301 | 1.0 | 1.0 | 0.00 | 0.00 | 0.00 | 53 | 1010.2 |
| 20260506024940 | 50 | 283 | 0.0 | 0.0 | 0.00 | 0.00 | 0.00 | 53 | 1010.1 |
| 20260506024437 | 50 | 298 | 0.0 | 1.0 | 0.00 | 0.00 | 0.00 | 53 | 1010.0 |
| 20260506023932 | 50 | 261 | 0.0 | 0.0 | 0.00 | 0.00 | 0.00 | 52 | 1009.9 |
| 20260506023429 | 48 | 318 | 0.0 | 1.0 | 0.00 | 0.00 | 0.00 | 59 | 1009.9 |
| 20260506022926 | 48 | 253 | 0.0 | 0.0 | 0.00 | 0.00 | 0.00 | 62 | 1009.9 |
| 20260506022424 | 48 | 253 | 0.0 | 0.0 | 0.00 | 0.00 | 0.00 | 64 | 1009.8 |
| 20260506021922 | 48 | 253 | 0.0 | 0.0 | 0.00 | 0.00 | 0.00 | 62 | 1009.5 |
| 20260506021419 | 48 | 253 | 0.0 | 0.0 | 0.00 | 0.00 | 0.00 | 65 | 1009.4 |
| 20260506020915 | 48 | 253 | 0.0 | 0.0 | 0.00 | 0.00 | 0.00 | 63 | 1009.5 |
| 20260506020414 | 49 | 253 | 0.0 | 0.0 | 0.00 | 0.00 | 0.00 | 63 | 1009.6 |
| 20260506015910 | 49 | 252 | 0.0 | 0.0 | 0.00 | 0.00 | 0.00 | 58 | 1009.3 |
| 20260506015408 | 49 | 253 | 0.0 | 0.0 | 0.00 | 0.00 | 0.00 | 58 | 1009.4 |
| 20260506014904 | 49 | 252 | 0.0 | 0.0 | 0.00 | 0.00 | 0.00 | 59 | 1009.0 |
| 20260506014401 | 49 | 253 | 0.0 | 0.0 | 0.00 | 0.00 | 0.00 | 59 | 1009.0 |
| 20260506013858 | 49 | 252 | 0.0 | 0.0 | 0.00 | 0.00 | 0.00 | 58 | 1008.8 |
| 20260506013356 | 50 | 253 | 0.0 | 0.0 | 0.00 | 0.00 | 0.00 | 58 | 1008.6 |
| 20260506012852 | 50 | 253 | 0.0 | 0.0 | 0.00 | 0.00 | 0.00 | 54 | 1008.5 |
| 20260506012349 | 50 | 252 | 0.0 | 0.0 | 0.00 | 0.00 | 0.00 | 53 | 1008.6 |
| 20260506011846 | 51 | 252 | 0.0 | 0.0 | 0.00 | 0.00 | 0.00 | 54 | 1008.9 |
| 20260506011343 | 51 | 252 | 0.0 | 0.0 | 0.00 | 0.00 | 0.00 | 51 | 1008.6 |
| 20260506010840 | 51 | 252 | 0.0 | 0.0 | 0.00 | 0.00 | 0.00 | 52 | 1008.4 |
| 20260506010338 | 51 | 238 | 0.0 | 0.0 | 0.00 | 0.00 | 0.00 | 50 | 1008.5 |
| 20260506005835 | 52 | 243 | 0.0 | 0.0 | 0.00 | 0.00 | 0.00 | 50 | 1008.4 |
| 20260506005331 | 52 | 244 | 1.0 | 1.0 | 0.00 | 0.00 | 0.00 | 48 | 1008.5 |
| 20260506004827 | 52 | 230 | 0.0 | 0.0 | 0.00 | 0.00 | 0.00 | 49 | 1008.2 |
| 20260506004325 | 53 | 237 | 0.0 | 0.0 | 0.00 | 0.00 | 0.00 | 47 | 1008.2 |
| 20260506003821 | 53 | 272 | 1.0 | 1.0 | 0.00 | 0.00 | 0.00 | 47 | 1008.1 |
| 20260506003317 | 53 | 272 | 0.0 | 1.0 | 0.00 | 0.00 | 0.00 | 47 | 1008.1 |
| 20260506002814 | 53 | 285 | 0.0 | 0.0 | 0.00 | 0.00 | 0.00 | 48 | 1008.0 |
| 20260506002311 | 53 | 272 | 0.0 | 0.0 | 0.00 | 0.00 | 0.00 | 46 | 1008.1 |
| 20260506001806 | 54 | 288 | 1.0 | 1.0 | 0.00 | 0.00 | 0.00 | 47 | 1008.1 |
| 20260506001304 | 54 | 261 | 1.0 | 1.0 | 0.00 | 0.00 | 0.00 | 47 | 1008.2 |
| 20260506000800 | 54 | 258 | 1.0 | 2.0 | 0.00 | 0.00 | 0.00 | 46 | 1008.1 |
| 20260506000258 | 54 | 244 | 1.0 | 2.0 | 0.00 | 0.00 | 0.00 | 45 | 1008.2 |
| 20260505235754 | 54 | 332 | 1.0 | 1.0 | 0.00 | 0.00 | 0.00 | 46 | 1008.4 |
| 20260505235253 | 54 | 263 | 2.0 | 2.0 | 0.00 | 0.00 | 0.00 | 46 | 1008.1 |
| 20260505234749 | 55 | 273 | 0.0 | 0.0 | 0.00 | 0.00 | 0.00 | 48 | 1008.0 |
| 20260505234247 | 55 | 250 | 0.0 | 0.0 | 0.00 | 0.00 | 0.00 | 46 | 1008.0 |
| 20260505233743 | 54 | 242 | 1.0 | 1.0 | 0.00 | 0.00 | 0.00 | 46 | 1008.3 |
| 20260505233241 | 54 | 262 | 1.0 | 1.0 | 0.00 | 0.00 | 0.00 | 45 | 1008.3 |
| 20260505232738 | 54 | 263 | 1.0 | 1.0 | 0.00 | 0.00 | 0.00 | 44 | 1008.2 |
| 20260505232236 | 54 | 263 | 0.0 | 1.0 | 0.00 | 0.00 | 0.00 | 44 | 1008.2 |
| 20260505231732 | 55 | 226 | 0.0 | 1.0 | 0.00 | 0.00 | 0.00 | 43 | 1008.1 |
| 20260505231231 | 55 | 275 | 0.0 | 1.0 | 0.00 | 0.00 | 0.00 | 44 | 1008.1 |
| 20260505230729 | 55 | 252 | 0.0 | 1.0 | 0.00 | 0.00 | 0.00 | 45 | 1008.2 |
| 20260505230225 | 55 | 11 | 1.0 | 2.0 | 0.00 | 0.00 | 0.00 | 45 | 1008.3 |
| 20260505225722 | 55 | 269 | 1.0 | 1.0 | 0.00 | 0.00 | 0.00 | 44 | 1008.2 |
| 20260505225219 | 55 | 293 | 1.0 | 1.0 | 0.00 | 0.00 | 0.00 | 45 | 1008.5 |
| 20260505224714 | 55 | 263 | 1.0 | 1.0 | 0.00 | 0.00 | 0.00 | 42 | 1008.3 |
| 20260505224212 | 55 | 304 | 0.0 | 1.0 | 0.00 | 0.00 | 0.00 | 44 | 1008.6 |
| 20260505223710 | 55 | 259 | 1.0 | 2.0 | 0.00 | 0.00 | 0.00 | 43 | 1008.5 |
| 20260505223205 | 55 | 299 | 1.0 | 2.0 | 0.00 | 0.00 | 0.00 | 41 | 1008.3 |
| 20260505222701 | 55 | 279 | 1.0 | 1.0 | 0.00 | 0.00 | 0.00 | 43 | 1008.2 |
| 20260505222157 | 55 | 290 | 1.0 | 1.0 | 0.00 | 0.00 | 0.00 | 44 | 1008.6 |
| 20260505221655 | 55 | 301 | 2.0 | 2.0 | 0.00 | 0.00 | 0.00 | 43 | 1008.2 |
| 20260505221151 | 55 | 318 | 1.0 | 2.0 | 0.00 | 0.00 | 0.00 | 43 | 1008.2 |
| 20260505220649 | 55 | 184 | 1.0 | 2.0 | 0.00 | 0.00 | 0.00 | 43 | 1008.3 |
| 20260505220147 | 56 | 310 | 1.0 | 1.0 | 0.00 | 0.00 | 0.00 | 42 | 1008.4 |
| 20260505215644 | 56 | 10 | 3.0 | 3.0 | 0.00 | 0.00 | 0.00 | 41 | 1008.6 |
| 20260505215142 | 56 | 277 | 1.0 | 2.0 | 0.00 | 0.00 | 0.00 | 40 | 1008.6 |
| 20260505214640 | 56 | 312 | 1.0 | 1.0 | 0.00 | 0.00 | 0.00 | 42 | 1008.8 |
| 20260505214136 | 56 | 225 | 2.0 | 2.0 | 0.00 | 0.00 | 0.00 | 43 | 1008.4 |
| 20260505213634 | 56 | 262 | 0.0 | 0.0 | 0.00 | 0.00 | 0.00 | 41 | 1008.2 |
| 20260505213130 | 56 | 227 | 2.0 | 2.0 | 0.00 | 0.00 | 0.00 | 43 | 1008.2 |
| 20260505212626 | 56 | 223 | 0.0 | 1.0 | 0.00 | 0.00 | 0.00 | 39 | 1008.3 |
| 20260505212124 | 57 | 254 | 2.0 | 2.0 | 0.00 | 0.00 | 0.00 | 43 | 1008.6 |
| 20260505211621 | 57 | 252 | 0.0 | 1.0 | 0.00 | 0.00 | 0.00 | 37 | 1008.4 |
| 20260505211118 | 57 | 287 | 1.0 | 2.0 | 0.00 | 0.00 | 0.00 | 40 | 1008.6 |
| 20260505210615 | 57 | 250 | 1.0 | 1.0 | 0.00 | 0.00 | 0.00 | 38 | 1008.5 |
| 20260505210112 | 58 | 227 | 0.0 | 1.0 | 0.00 | 0.00 | 0.00 | 40 | 1008.4 |
| 20260505205609 | 57 | 250 | 0.0 | 1.0 | 0.00 | 0.00 | 0.00 | 43 | 1008.3 |
| 20260505205107 | 57 | 247 | 2.0 | 2.0 | 0.00 | 0.00 | 0.00 | 40 | 1008.1 |
| 20260505204604 | 56 | 309 | 2.0 | 2.0 | 0.00 | 0.00 | 0.00 | 40 | 1008.3 |
| 20260505204101 | 56 | 238 | 1.0 | 2.0 | 0.00 | 0.00 | 0.00 | 44 | 1008.4 |
| 20260505203558 | 56 | 287 | 0.0 | 0.0 | 0.00 | 0.00 | 0.00 | 44 | 1008.6 |
| 20260505203055 | 57 | 261 | 5.0 | 6.0 | 0.00 | 0.00 | 0.00 | 40 | 1008.8 |
| 20260505202551 | 57 | 319 | 1.0 | 2.0 | 0.00 | 0.00 | 0.00 | 43 | 1008.6 |
| 20260505202047 | 57 | 284 | 2.0 | 3.0 | 0.00 | 0.00 | 0.00 | 39 | 1008.6 |
| 20260505201544 | 57 | 238 | 0.0 | 1.0 | 0.00 | 0.00 | 0.00 | 43 | 1008.5 |
| 20260505201042 | 57 | 286 | 5.0 | 6.0 | 0.00 | 0.00 | 0.00 | 39 | 1008.8 |
| 20260505200539 | 57 | 313 | 3.0 | 5.0 | 0.00 | 0.00 | 0.00 | 40 | 1008.6 |
| 20260505200036 | 57 | 278 | 3.0 | 3.0 | 0.00 | 0.00 | 0.00 | 39 | 1008.8 |
| 20260505195532 | 58 | 253 | 3.0 | 5.0 | 0.00 | 0.00 | 0.00 | 38 | 1008.6 |
| 20260505195030 | 57 | 348 | 2.0 | 2.0 | 0.00 | 0.00 | 0.00 | 40 | 1008.6 |
| 20260505194527 | 57 | 317 | 3.0 | 5.0 | 0.00 | 0.00 | 0.00 | 40 | 1008.8 |
| 20260505194022 | 57 | 227 | 1.0 | 2.0 | 0.00 | 0.00 | 0.00 | 41 | 1008.6 |
| 20260505193519 | 57 | 243 | 2.0 | 2.0 | 0.00 | 0.00 | 0.00 | 38 | 1008.4 |
| 20260505193017 | 57 | 268 | 1.0 | 1.0 | 0.00 | 0.00 | 0.00 | 39 | 1008.5 |
| 20260505192515 | 58 | 165 | 1.0 | 1.0 | 0.00 | 0.00 | 0.00 | 38 | 1008.5 |
| 20260505192012 | 58 | 269 | 1.0 | 1.0 | 0.00 | 0.00 | 0.00 | 42 | 1009.0 |
| 20260505191510 | 58 | 234 | 0.0 | 1.0 | 0.00 | 0.00 | 0.00 | 40 | 1008.9 |
| 20260505191008 | 58 | 249 | 1.0 | 1.0 | 0.00 | 0.00 | 0.00 | 42 | 1008.6 |
| 20260505190503 | 59 | 85 | 2.0 | 3.0 | 0.00 | 0.00 | 0.00 | 42 | 1009.1 |
| 20260505185958 | 58 | 265 | 1.0 | 1.0 | 0.00 | 0.00 | 0.00 | 38 | 1009.1 |
| 20260505185456 | 57 | 263 | 2.0 | 2.0 | 0.00 | 0.00 | 0.00 | 37 | 1009.0 |
| 20260505184952 | 58 | 290 | 3.0 | 5.0 | 0.00 | 0.00 | 0.00 | 39 | 1009.0 |
| 20260505184449 | 57 | 259 | 2.0 | 2.0 | 0.00 | 0.00 | 0.00 | 40 | 1009.0 |
| 20260505183945 | 57 | 306 | 3.0 | 3.0 | 0.00 | 0.00 | 0.00 | 42 | 1008.9 |
| 20260505183442 | 57 | 91 | 0.0 | 1.0 | 0.00 | 0.00 | 0.00 | 42 | 1008.8 |
| 20260505182939 | 57 | 252 | 4.0 | 5.0 | 0.00 | 0.00 | 0.00 | 37 | 1008.8 |
| 20260505182436 | 58 | 271 | 1.0 | 1.0 | 0.00 | 0.00 | 0.00 | 42 | 1008.8 |
| 20260505181932 | 57 | 215 | 1.0 | 2.0 | 0.00 | 0.00 | 0.00 | 41 | 1008.8 |
| 20260505181430 | 59 | 264 | 2.0 | 2.0 | 0.00 | 0.00 | 0.00 | 40 | 1008.6 |
| 20260505180926 | 58 | 207 | 2.0 | 2.0 | 0.00 | 0.00 | 0.00 | 40 | 1008.5 |
| 20260505180423 | 58 | 238 | 1.0 | 2.0 | 0.00 | 0.00 | 0.00 | 40 | 1008.4 |
| 20260505175919 | 57 | 217 | 1.0 | 1.0 | 0.00 | 0.00 | 0.00 | 43 | 1008.6 |
| 20260505175416 | 58 | 288 | 5.0 | 8.0 | 0.00 | 0.00 | 0.00 | 39 | 1008.6 |
| 20260505174912 | 57 | 244 | 3.0 | 3.0 | 0.00 | 0.00 | 0.00 | 43 | 1008.2 |
| 20260505174410 | 57 | 251 | 2.0 | 2.0 | 0.00 | 0.00 | 0.00 | 42 | 1008.3 |
| 20260505173906 | 57 | 289 | 4.0 | 6.0 | 0.00 | 0.00 | 0.00 | 44 | 1008.5 |
| 20260505173402 | 59 | 304 | 5.0 | 6.0 | 0.00 | 0.00 | 0.00 | 41 | 1008.2 |
| 20260505172859 | 58 | 281 | 2.0 | 2.0 | 0.00 | 0.00 | 0.00 | 42 | 1008.3 |
| 20260505172357 | 58 | 275 | 2.0 | 3.0 | 0.00 | 0.00 | 0.00 | 42 | 1008.5 |
| 20260505171857 | 58 | 246 | 2.0 | 2.0 | 0.00 | 0.00 | 0.00 | 44 | 1008.3 |
| 20260505171354 | 56 | 255 | 3.0 | 5.0 | 0.00 | 0.00 | 0.00 | 43 | 1008.3 |
| 20260505170850 | 55 | 281 | 3.0 | 5.0 | 0.00 | 0.00 | 0.00 | 44 | 1008.3 |
| 20260505170347 | 55 | 285 | 3.0 | 5.0 | 0.00 | 0.00 | 0.00 | 44 | 1008.6 |
| 20260505165842 | 56 | 297 | 3.0 | 3.0 | 0.00 | 0.00 | 0.00 | 42 | 1008.4 |
| 20260505165338 | 56 | 256 | 2.0 | 2.0 | 0.00 | 0.00 | 0.00 | 41 | 1008.9 |
| 20260505164834 | 55 | 274 | 1.0 | 2.0 | 0.00 | 0.00 | 0.00 | 45 | 1008.6 |
| 20260505164331 | 54 | 309 | 1.0 | 2.0 | 0.00 | 0.00 | 0.00 | 46 | 1008.6 |
| 20260505163829 | 55 | 300 | 4.0 | 6.0 | 0.00 | 0.00 | 0.00 | 42 | 1008.5 |
| 20260505163328 | 55 | 271 | 2.0 | 2.0 | 0.00 | 0.00 | 0.00 | 44 | 1008.5 |
| 20260505162826 | 54 | 282 | 3.0 | 3.0 | 0.00 | 0.00 | 0.00 | 45 | 1008.3 |
| 20260505162322 | 54 | 264 | 3.0 | 5.0 | 0.00 | 0.00 | 0.00 | 46 | 1008.4 |
| 20260505161819 | 54 | 285 | 2.0 | 2.0 | 0.00 | 0.00 | 0.00 | 47 | 1008.4 |
| 20260505161316 | 54 | 293 | 1.0 | 2.0 | 0.00 | 0.00 | 0.00 | 48 | 1008.3 |
| 20260505160813 | 53 | 302 | 3.0 | 3.0 | 0.00 | 0.00 | 0.00 | 47 | 1008.5 |
| 20260505160311 | 53 | 218 | 1.0 | 2.0 | 0.00 | 0.00 | 0.00 | 51 | 1008.2 |
| 20260505153250 | 52 | 258 | 1.0 | 1.0 | 0.00 | 0.00 | 0.00 | 49 | 1008.2 |
| 20260505152747 | 52 | 239 | 1.0 | 1.0 | 0.00 | 0.00 | 0.00 | 49 | 1008.1 |
| 20260505152243 | 52 | 303 | 4.0 | 5.0 | 0.00 | 0.00 | 0.00 | 48 | 1008.2 |
| 20260505151737 | 52 | 317 | 3.0 | 3.0 | 0.00 | 0.00 | 0.00 | 48 | 1008.3 |
| 20260505151235 | 52 | 241 | 1.0 | 1.0 | 0.00 | 0.00 | 0.00 | 51 | 1008.4 |
| 20260505150732 | 52 | 278 | 0.0 | 1.0 | 0.00 | 0.00 | 0.00 | 49 | 1008.4 |
| 20260505150229 | 52 | 280 | 1.0 | 2.0 | 0.00 | 0.00 | 0.00 | 51 | 1008.5 |
| 20260505140154 | 50 | 223 | 2.0 | 3.0 | 0.00 | 0.00 | 0.00 | 51 | 1008.9 |
| 20260505130118 | 49 | 267 | 1.0 | 1.0 | 0.00 | 0.00 | 0.00 | 55 | 1008.5 |
| 20260505124607 | 49 | 266 | 1.0 | 2.0 | 0.00 | 0.00 | 0.00 | 56 | 1008.3 |
| 20260505124103 | 49 | 272 | 0.0 | 0.0 | 0.00 | 0.00 | 0.00 | 57 | 1007.9 |
| 20260505123600 | 49 | 331 | 1.0 | 2.0 | 0.00 | 0.00 | 0.00 | 57 | 1008.0 |
| 20260505123056 | 48 | 312 | 1.0 | 1.0 | 0.00 | 0.00 | 0.00 | 56 | 1008.0 |
| 20260505122553 | 48 | 269 | 0.0 | 0.0 | 0.00 | 0.00 | 0.00 | 55 | 1008.3 |
| 20260505122050 | 48 | 263 | 0.0 | 0.0 | 0.00 | 0.00 | 0.00 | 56 | 1008.6 |
| 20260505121547 | 48 | 268 | 0.0 | 0.0 | 0.00 | 0.00 | 0.00 | 57 | 1008.2 |
| 20260505121044 | 48 | 298 | 1.0 | 1.0 | 0.00 | 0.00 | 0.00 | 58 | 1008.0 |
| 20260505120540 | 48 | 32 | 0.0 | 0.0 | 0.00 | 0.00 | 0.00 | 58 | 1008.1 |
| 20260505120035 | 48 | 307 | 1.0 | 1.0 | 0.00 | 0.00 | 0.00 | 59 | 1008.3 |
| 20260505115530 | 48 | 288 | 0.0 | 1.0 | 0.00 | 0.00 | 0.00 | 58 | 1008.6 |
| 20260505115028 | 48 | 275 | 0.0 | 1.0 | 0.00 | 0.00 | 0.00 | 57 | 1008.3 |
| 20260505114525 | 48 | 252 | 1.0 | 1.0 | 0.00 | 0.00 | 0.00 | 58 | 1007.8 |
| 20260505114021 | 48 | 286 | 1.0 | 1.0 | 0.00 | 0.00 | 0.00 | 56 | 1008.0 |
| 20260505113518 | 48 | 47 | 1.0 | 2.0 | 0.00 | 0.00 | 0.00 | 57 | 1007.4 |
| 20260505113014 | 48 | 291 | 1.0 | 2.0 | 0.00 | 0.00 | 0.00 | 57 | 1007.1 |
| 20260505112511 | 48 | 116 | 0.0 | 0.0 | 0.00 | 0.00 | 0.00 | 58 | 1006.8 |
| 20260505112009 | 48 | 296 | 1.0 | 2.0 | 0.00 | 0.00 | 0.00 | 59 | 1007.3 |
| 20260505111502 | 48 | 263 | 0.0 | 0.0 | 0.00 | 0.00 | 0.00 | 60 | 1006.9 |
| 20260505110958 | 48 | 8 | 2.0 | 2.0 | 0.00 | 0.00 | 0.00 | 60 | 1006.3 |
| 20260505110455 | 48 | 267 | 0.0 | 1.0 | 0.00 | 0.00 | 0.00 | 61 | 1006.6 |
| 20260505101927 | 49 | 305 | 1.0 | 1.0 | 0.00 | 0.00 | 0.00 | 57 | 1006.7 |
| 20260505101421 | 49 | 308 | 1.0 | 1.0 | 0.00 | 0.00 | 0.00 | 57 | 1006.4 |
| 20260505100916 | 49 | 3 | 2.0 | 3.0 | 0.00 | 0.00 | 0.00 | 57 | 1005.9 |
| 20260505100414 | 49 | 26 | 3.0 | 6.0 | 0.00 | 0.00 | 0.00 | 56 | 1005.8 |
| 20260505095909 | 49 | 325 | 2.0 | 2.0 | 0.00 | 0.00 | 0.00 | 57 | 1005.8 |
| 20260505095407 | 50 | 145 | 0.0 | 0.0 | 0.00 | 0.00 | 0.00 | 58 | 1006.0 |
| 20260505094903 | 50 | 342 | 1.0 | 2.0 | 0.00 | 0.00 | 0.00 | 58 | 1006.0 |
| 20260505094400 | 50 | 343 | 1.0 | 2.0 | 0.00 | 0.00 | 0.00 | 59 | 1006.0 |
| 20260505093855 | 50 | 342 | 0.0 | 1.0 | 0.00 | 0.00 | 0.00 | 59 | 1006.2 |
| 20260505093353 | 50 | 88 | 1.0 | 2.0 | 0.00 | 0.00 | 0.00 | 59 | 1006.0 |
| 20260505092850 | 51 | 288 | 0.0 | 1.0 | 0.00 | 0.00 | 0.00 | 59 | 1006.1 |
| 20260505092348 | 51 | 298 | 2.0 | 2.0 | 0.00 | 0.00 | 0.00 | 58 | 1005.7 |
| 20260505091845 | 51 | 333 | 2.0 | 2.0 | 0.00 | 0.00 | 0.00 | 58 | 1005.8 |
| 20260505091343 | 51 | 245 | 2.0 | 2.0 | 0.00 | 0.00 | 0.00 | 58 | 1005.5 |
| 20260505090841 | 51 | 359 | 0.0 | 0.0 | 0.00 | 0.00 | 0.00 | 57 | 1005.3 |
| 20260505090339 | 51 | 256 | 0.0 | 1.0 | 0.00 | 0.00 | 0.00 | 57 | 1005.3 |
| 20260505085836 | 51 | 305 | 2.0 | 2.0 | 0.00 | 0.00 | 0.00 | 56 | 1005.1 |
| 20260505085334 | 51 | 308 | 2.0 | 5.0 | 0.00 | 0.00 | 0.00 | 56 | 1005.3 |
| 20260505084831 | 51 | 315 | 2.0 | 2.0 | 0.00 | 0.00 | 0.00 | 57 | 1005.0 |
| 20260505084329 | 51 | 274 | 1.0 | 1.0 | 0.00 | 0.00 | 0.00 | 56 | 1005.1 |
| 20260505083826 | 51 | 261 | 1.0 | 1.0 | 0.00 | 0.00 | 0.00 | 56 | 1004.3 |
| 20260505083324 | 52 | 300 | 1.0 | 1.0 | 0.00 | 0.00 | 0.00 | 55 | 1004.5 |